Flag for Tunisia Weather past 2 weeks in Tunis, Tunisia

Now
81 °F

Passing clouds.


Feels Like: 85 °F
Forecast: 74 / 85 °F
Wind: 3 mph from Northwest

Location: Tunis-Carthage

Current Time: Sep 5, 2015 at 5:26:50 AM

Latest Report: Sep 5, 2015 at 5:00 AM


Visibility: N/A

Pressure: 29.95 "Hg

Humidity: 74%

Dew point: 72 °F

Location of TunisLocation

Historic Weather in Tunis — Graph

°F

Tunis temperature yesterday

Maximum temperature yesterday: 100 °F (at 1:30 PM)
Minimum temperature yesterday: 75 °F (at 5:30 AM)
Average temperature yesterday: 87 °F

Past Weeks' High & Low Weather Summary

 TemperatureHumidityPressure
High100 °F (Aug 24, 1:00 PM)94% (Aug 22, 4:00 AM)30.15 "Hg (Aug 22, 4:00 AM)
Low66 °F (Aug 22, 6:00 AM)20% (Sep 1, 11:30 AM)29.83 "Hg (Sep 4, 3:30 PM)
Average83 °F61%29.99 "Hg
* Reported Aug 21 4:00 AM — Sep 5 4:00 AM, Tunis, Weather by CustomWeather, © 2015

Note: Actual official high and low records may vary slightly from our data, if they occured in-between our weather recording intervals... More about our weather records

Advertising

Tunis weather history for previous 24 hours

 ConditionsComfort  
Time TempWeatherWind HumidityBarometerVisibility
4:00 AM
Sat, Sep 5
81 °FPassing clouds.13 mph66%29.95 "HgN/A
3:30 AM81 °FPassing clouds.7 mph66%29.92 "HgN/A
2:30 AM77 °FPassing clouds.3 mph79%29.89 "HgN/A
2:00 AM77 °FPassing clouds.3 mph74%29.89 "HgN/A
1:30 AM79 °FPassing clouds.2 mph70%29.89 "HgN/A
1:00 AM81 °FPassing clouds.5 mph62%29.89 "HgN/A
12:30 AM84 °FPassing clouds.5 mph51%29.89 "HgN/A
12:00 AM84 °FPassing clouds.8 mph48%29.89 "HgN/A
11:30 PM
Fri, Sep 4
86 °FPassing clouds.5 mph55%29.89 "HgN/A
10:30 PM86 °FPassing clouds.3 mph52%29.89 "HgN/A
10:00 PM86 °FPassing clouds.5 mph52%29.89 "HgN/A
9:00 PM90 °FPassing clouds.5 mph38%29.89 "HgN/A
8:30 PM90 °FPassing clouds.6 mph41%29.92 "HgN/A
8:00 PM86 °FPassing clouds.9 mph55%29.83 "HgN/A
7:30 PM90 °FPassing clouds.10 mph46%29.83 "HgN/A
7:00 PM90 °FPassing clouds.10 mph46%29.83 "HgN/A
6:30 PM93 °FPassing clouds.12 mph41%29.83 "HgN/A
6:00 PM93 °FPassing clouds.9 mph41%29.83 "HgN/A
5:30 PM97 °FPassing clouds.12 mph37%29.83 "HgN/A
5:00 PM99 °FPassing clouds.10 mph33%29.83 "HgN/A
4:30 PM100 °FPassing clouds.9 mph29%29.83 "HgN/A
4:00 PM99 °FPassing clouds.8 mph35%29.83 "HgN/A
3:30 PM100 °FPassing clouds.8 mph27%29.83 "HgN/A
3:00 PM100 °FPassing clouds.5 mph24%29.86 "HgN/A
2:30 PM100 °FPassing clouds.7 mph29%29.86 "HgN/A
2:00 PM100 °FScattered clouds.7 mph29%29.86 "HgN/A
1:30 PM100 °FScattered clouds.8 mph27%29.89 "HgN/A
1:00 PM95 °FScattered clouds.8 mph36%29.89 "HgN/A
12:30 PM93 °FScattered clouds.12 mph41%29.92 "HgN/A
12:00 PM91 °FScattered clouds.12 mph46%29.95 "HgN/A
11:30 AM88 °FScattered clouds.7 mph49%29.95 "HgN/A
11:00 AM86 °FScattered clouds.3 mph55%29.95 "HgN/A
10:30 AM84 °FScattered clouds.10 mph55%29.98 "HgN/A
10:00 AM82 °FScattered clouds.8 mph62%29.98 "HgN/A
9:30 AM82 °FScattered clouds.10 mph58%29.98 "HgN/A
9:00 AM82 °FScattered clouds.9 mph62%29.98 "HgN/A
8:30 AM82 °FScattered clouds.6 mph66%29.95 "HgN/A
8:00 AM81 °FScattered clouds.3 mph70%29.95 "HgN/A
7:30 AM81 °FScattered clouds.3 mph70%29.95 "HgN/A
7:00 AM79 °FPassing clouds.No wind79%29.95 "HgN/A
6:30 AM77 °FPassing clouds.5 mph79%29.95 "HgN/A
6:00 AM75 °FPassing clouds.2 mph78%29.92 "HgN/A
5:30 AM75 °FPassing clouds.2 mph83%29.92 "HgN/A
5:00 AM77 °FPassing clouds.2 mph74%29.92 "HgN/A
Weather by CustomWeather, © 2015

See weather overviewHow to use our weather pages